SCP
0 0 0 0 0 0 0 0 0 0 -0 -0 -0 -0 0 0 0 0 0 0 0 -0 -0 -0 0 0 0 0 0 0 0 0 0 0 0 0 0 0 0 0 0 0 -0 -0 0 0 0
0 0 0 0 0 0 -0 -0 -0 -0 -0 -0 -0 -0 -0 -0 0 0 0 0 0 -0 -0 -0 0 0 0 0 0 0 0 0 0 0 0 0 0 0 0 0 0 -0 0 0 0 0 0
0 0 0 0 0 -0 -0 -0 -0 -0 -0 -0 -0 -0 -0 -0 -0 0 0 0 0 -0 -0 -0 0 0 0 0 0 0 0 0 0 0 0 0 0 0 0 0 0 0 0 0 0 0 0
0 0 0 0 -0 -0 -0 -0 -0 -0 -0 -0 -0 -0 -0 -0 0 0 0 0 -0 -0 -0 -0 -0 0 0 0 -0 0 0 0 0 0 0 0 0 0 0 0 0 0 0 0 0 0 0
0 0 0 0 0 -0 -0 -0 -0 -0 -0 -0 -0 -0 -0 -0 0 0 -0 -0 -0 -0 0 -0 0 0 0 -0 0 0 0 0 0 0 0 0 0 0 0 0 0 0 0 0 0 0 0
0 0 0 0 0 -0 -0 -0 -0 -0 -0 -0 -0 -0 0 0 0 -0 0 -0 0 0 0 -0 0 0 -0 0 0 0 0 0 0 0 0 0 0 0 0 0 0 0 0 0 0 0 0
0 0 0 -0 0 -0 -0 -0 -0 -0 -0 -0 -0 -0 0 0 -0 -0 0 0 0 -0 0 0 0 0 -0 -0 -0 0 0 0 0 0 0 0 0 0 0 0 0 0 -0 0 -0 0 -0
0 0 -0 -0 0 -0 -0 -0 -0 -0 -0 -0 -0 0 0 0 -0 -0 0 -0 0 0 -0 -0 -0 -0 -0 -0 0 0 0 0 0 0 0 0 0 0 0 0 0 0 0 0 -0 -0 -0
0 0 0 -0 -0 -0 -0 -0 -0 -0 -0 -0 -0 0 0 0 -0 0 -0 -0 0 0 -0 -0 0 -0 -0 0 0 0 0 0 0 0 0 0 0 0 0 0 0 0 0 0 -0 -0 -0
0 0 -0 -0 0 -0 0 -0 -0 -0 -0 -0 0 0 -0 0 -0 -0 -0 -0 0 0 0 -0 -0 -0 -0 -0 0 -0 0 0 0 0 0 0 0 0 0 0 0 0 0 0 0 0 -0
0 -0 -0 -0 0 0 0 0 -0 0 0 0 0 -0 -0 -0 -0 -0 -0 -0 -0 0 0 0 -0 -0 -0 0 -0 0 0 0 0 0 0 0 0 0 0 0 0 0 0 0 0 0 0
-0 -0 0 0 -0 0 0 0 0 0 0 0 -0 -0 -0 -0 -0 -0 -0 -0 -0 0 0 -0 -0 -0 -0 -0 -0 -0 0 0 0 0 0 0 0 0 0 0 0 0 0 0 0 0 0
-0 0 0 0 -0 -0 0 0 0 0 -0 -0 -0 0 -0 -0 -0 -0 -0 -0 0 0 -0 -0 -0 -0 -0 0 0 -0 0 0 0 0 0 0 0 0 0 0 0 0 0 0 0 0 0
0 0 0 0 -0 -0 0 0 0 -0 -0 -0 -0 -0 0 -0 -0 -0 -0 -0 0 0 0 -0 -0 0 -0 0 0 0 0 0 0 0 0 0 0 0 0 0 0 0 0 0 0 0 0
0 0 0 0 -0 -0 0 0 0 -0 -0 -0 0 -0 -0 -0 0 -0 -0 0 0 0 -0 -0 0 0 0 0 0 0 0 -0 -0 0 0 0 0 0 0 0 0 0 0 0 0 0 0
0 0 0 0 -0 0 0 0 -0 -0 -0 -0 -0 -0 -0 -0 -0 -0 0 0 0 -0 -0 0 0 0 0 0 -0 0 0 0 0 0 0 0 0 0 0 0 0 0 0 0 0 0 0
0 0 0 0 0 0 0 0 0 -0 -0 0 -0 0 -0 -0 -0 0 0 0 0 0 0 0 0 0 0 0 -0 -0 -0 0 0 0 0 0 0 0 0 0 0 0 0 0 0 0 0
0 0 0 0 0 0 0 0 0 -0 -0 0 -0 0 -0 -0 -0 0 0 0 -0 -0 0 0 0 -0 0 -0 0 0 -0 -0 0 0 0 0 0 0 0 0 0 0 0 0 0 -0 -0
0 -0 0 0 0 0 0 0 0 0 0 0 0 0 -0 -0 0 0 0 0 0 -0 0 0 0 0 -0 0 0 0 0 -0 0 0 0 0 0 0 0 0 0 0 0 0 0 0 0
0 0 0 0 0 0 -0 -0 0 0 0 0 0 0 -0 -0 0 0 0 0 0 0 0 0 0 0 0 0 0 0 0 0 0 0 0 0 0 0 0 0 0 0 0 0 0 0 0
0 0 0 0 0 0 0 0 0 0 0 0 0 0 0 -0 0 0 0 0 0 0 0 0 -0 -0 -0 0 0 0 0 0 0 0 0 0 0 0 0 0 0 0 0 0 0 0 0
0 0 0 0 0 0 0 0 0 0 0 0 0 0 0 0 0 0 0 0 0 0 0 0 0 0 0 0 0 0 0 0 0 0 0 0 0 0 0 0 0 0 0 0 0 0 0
0 0 0 0 0 0 0 0 0 0 0 0 0 0 0 0 0 0 0 0 0 0 0 0 0 0 0 0 0 0 0 0 0 0 0 0 0 0 0 0 0 0 0 0 0 0 0
0 0 0 0 0 0 0 0 0 0 0 0 0 0 0 0 0 0 0 0 -0 0 0 0 0 0 0 0 0 0 0 0 -0 0 0 -0 0 0 0 0 0 0 0 0 0 0 0
0 0 0 0 0 0 0 0 0 0 0 0 0 0 0 0 0 0 0 0 0 0 0 0 0 0 0 0 0 0 0 0 0 0 0 0 0 0 0 0 0 0 0 0 0 0 0
0 0 0 0 0 0 0 0 0 0 0 0 0 0 0 0 0 0 0 0 0 0 0 0 0 0 -0 -0 -0 0 0 0 0 0 0 0 0 0 0 0 0 0 0 0 0 0 0
0 0 0 0 0 0 0 0 0 0 0 0 0 0 0 0 0 0 0 0 0 0 0 0 0 0 0 -0 -0 0 0 0 0 0 0 0 0 0 0 0 0 0 0 0 0 0 0
0 0 0 0 0 0 0 0 0 0 0 0 0 0 0 0 0 0 0 0 0 0 0 0 0 0 -0 0 0 0 0 0 0 0 0 0 0 0 0 0 0 0 0 0 0 0 0
0 0 0 0 0 0 0 0 0 0 0 0 0 0 0 0 0 0 0 0 0 0 0 0 0 0 -0 -0 -0 0 0 0 -0 -0 0 0 -0 0 -0 -0 0 0 0 0 0 0 0
Wind_Speed_500mb
35 33 32 31 29 28 27 26 25 25 24 22 22 24 23 21 22 23 24 23 21 16 12 10 8 7 7 6 2 3 4 23 35 28 31 27 19 7 5 5 6 6 16 13 15 9 2
34 36 35 31 29 28 27 28 27 26 24 21 21 23 22 20 21 22 23 24 24 21 14 10 8 5 5 4 3 7 13 15 32 25 28 25 11 3 6 2 6 12 11 14 8 8 3
37 36 36 32 31 30 29 29 29 28 25 22 19 20 21 19 20 21 21 22 23 22 17 11 8 8 9 5 10 10 14 9 15 22 17 25 13 13 7 5 3 13 8 9 8 11 7
41 38 37 36 35 33 31 29 29 29 27 24 20 20 20 19 17 18 21 26 26 18 17 13 9 14 3 10 13 14 9 4 8 16 15 11 22 8 3 15 8 7 6 4 4 10 6
47 45 42 40 39 36 34 32 30 30 28 25 23 21 20 18 14 16 23 29 23 15 13 19 11 14 6 2 14 11 9 2 4 17 21 15 13 3 3 8 7 11 6 10 11 12 16
53 51 47 44 40 39 37 34 33 31 28 25 23 20 18 18 12 14 25 22 20 8 17 12 11 7 7 12 5 8 13 10 10 21 13 9 7 6 7 8 6 8 8 5 10 11 13
56 56 53 49 44 42 39 36 35 32 29 26 25 21 19 18 11 14 21 16 20 7 29 11 20 13 13 10 8 8 17 17 8 5 7 5 9 11 10 11 8 11 10 14 14 7 6
56 56 54 52 49 44 41 38 36 33 30 27 25 23 20 18 10 11 16 12 17 18 17 8 10 15 8 1 6 8 20 10 8 4 4 10 10 10 10 10 9 11 11 7 7 16 10
52 54 54 54 52 49 44 40 37 34 32 29 28 25 20 16 8 5 9 19 30 31 3 10 7 7 4 7 3 14 28 12 6 6 6 11 6 19 11 7 7 2 7 8 9 18 11
49 51 53 54 54 50 48 43 39 36 33 32 30 27 19 12 2 4 4 23 35 12 9 10 5 3 4 3 3 15 28 11 3 14 11 6 4 10 9 6 10 5 16 18 23 29 6
47 49 52 54 56 55 50 46 40 38 34 32 32 28 15 5 5 2 8 25 20 3 9 4 4 2 5 4 1 9 26 14 7 7 10 10 5 3 6 12 7 4 22 6 8 6 4
47 49 50 53 55 56 53 48 42 39 36 33 36 24 10 10 14 6 11 25 1 10 4 10 2 2 4 9 4 4 8 9 3 7 2 14 7 11 12 11 14 29 17 7 8 5 2
46 48 50 53 55 56 55 50 44 39 37 35 30 15 7 12 9 5 15 13 9 9 6 5 1 8 9 10 11 7 8 5 6 5 4 9 9 6 12 17 11 11 12 1 7 7 7
47 47 49 52 54 55 54 51 45 40 37 36 19 9 3 9 14 9 17 8 8 2 6 5 2 6 6 5 5 12 6 4 5 6 1 5 2 16 11 17 21 14 16 8 7 6 6
46 45 47 51 54 55 53 52 45 40 35 27 13 7 4 8 13 7 7 8 7 6 6 1 3 7 5 3 3 2 3 5 10 15 12 3 9 5 10 10 19 10 8 6 12 2 3
44 41 45 49 52 55 53 52 46 38 34 21 9 5 2 8 10 5 8 7 7 9 4 2 6 4 6 6 4 3 2 3 7 15 8 7 5 6 7 18 13 16 15 7 8 5 8
42 39 43 46 50 53 53 52 47 37 31 17 7 7 7 15 7 2 4 9 10 20 17 9 9 6 4 1 3 7 3 7 5 5 15 7 6 10 7 1 15 7 2 11 10 9 7
46 42 43 45 47 51 51 50 47 40 30 14 5 6 6 10 6 4 0 6 12 9 7 5 8 7 9 10 3 4 4 9 17 7 2 2 8 5 3 12 3 8 12 12 10 11 4
44 45 45 45 45 49 48 46 42 39 34 28 10 5 13 15 3 5 10 9 10 6 4 1 4 3 4 7 3 3 5 11 15 5 3 5 5 5 9 13 8 11 4 8 7 6 11
45 47 45 44 44 45 46 43 38 33 30 26 5 4 6 11 6 7 5 9 8 3 3 9 7 7 8 7 5 2 7 6 15 14 18 10 6 9 12 12 2 9 11 6 3 8 11
41 43 43 43 43 43 44 41 36 29 25 16 6 2 3 3 2 5 4 6 4 4 6 12 11 8 7 5 5 7 6 13 10 17 13 11 8 5 8 4 5 5 9 17 2 4 7
38 40 42 42 42 42 42 40 33 25 22 8 6 7 6 5 7 3 6 8 10 4 1 3 12 2 5 8 7 2 4 2 4 12 7 5 5 6 11 15 17 10 18 10 8 6 12
37 38 40 41 41 40 40 39 33 22 17 6 4 4 5 5 4 3 6 8 7 14 7 8 16 7 3 8 7 9 9 12 4 3 3 6 8 2 5 5 13 10 15 11 3 6 4
37 37 37 37 38 39 37 37 34 24 16 8 6 5 2 6 2 5 4 9 10 3 13 10 5 7 4 7 11 13 24 25 26 13 4 9 9 2 7 2 4 6 5 13 13 7 10
36 34 34 34 36 38 37 35 33 25 17 13 7 4 3 5 7 9 13 5 19 16 5 11 4 5 3 4 8 10 10 8 10 10 14 6 8 7 8 2 2 5 5 1 5 5 7
35 32 31 32 34 36 36 34 30 25 17 16 11 10 7 4 10 5 7 3 5 7 5 6 9 3 3 10 8 5 3 3 5 6 9 12 13 8 5 7 8 10 6 3 7 6 4
34 31 31 32 34 33 32 30 28 24 18 15 11 10 8 9 9 6 5 5 10 7 6 2 3 3 8 6 7 4 2 4 3 4 6 8 8 6 4 3 10 7 8 5 8 11 9
32 32 32 33 33 32 32 31 28 23 22 15 13 16 19 11 23 8 7 7 7 10 9 12 7 6 8 8 5 4 4 4 6 2 6 5 6 1 4 5 8 6 3 4 8 4 11
30 31 32 33 33 32 32 32 30 24 20 17 16 19 22 27 17 19 14 10 10 12 19 16 6 10 11 9 2 6 2 3 5 3 4 1 10 8 12 10 5 6 2 2 4 6 14
Wind_Direction_500mb
34 34 34 33 31 28 25 21 15 12 11 11 10 13 17 21 20 19 21 20 12 355 339 325 318 322 304 262 228 48 15 193 186 179 181 172 171 149 103 88 88 74 158 169 131 151 346
32 31 30 31 30 27 24 20 17 14 12 10 9 10 11 14 17 18 17 14 13 9 356 336 323 305 272 264 175 102 81 148 189 187 180 183 195 247 25 41 185 161 178 169 191 168 130
29 28 27 27 25 23 20 17 15 12 10 9 8 8 7 7 10 10 10 5 2 6 6 359 351 323 271 228 135 133 100 121 192 195 194 191 163 59 16 88 34 89 102 108 102 161 69
29 27 26 25 22 19 16 13 11 10 9 6 4 3 3 3 360 359 353 350 345 345 6 9 9 348 274 165 166 167 153 117 206 199 194 162 206 282 25 128 83 84 110 168 90 136 59
29 26 23 21 18 13 10 10 8 7 7 4 1 359 356 354 348 346 341 345 338 337 356 348 343 349 88 70 245 248 262 348 111 153 133 139 131 165 93 91 36 12 99 84 82 23 10
28 26 22 18 14 11 8 6 4 3 3 2 359 355 350 348 335 336 343 347 357 356 346 347 2 10 84 335 21 270 211 173 83 130 139 133 114 70 43 86 200 187 121 80 95 16 2
23 22 20 16 13 8 6 3 1 359 358 358 355 350 344 342 329 339 11 6 5 351 330 290 298 277 306 333 314 186 185 169 178 163 121 134 90 210 179 197 154 137 121 112 110 23 53
19 18 16 13 11 6 3 359 358 356 353 353 349 344 338 336 323 359 32 50 32 334 308 340 286 278 302 11 99 133 170 146 142 129 137 40 208 154 166 158 152 172 162 155 104 150 156
13 13 13 11 7 5 1 357 354 353 349 346 344 339 332 333 337 65 45 19 345 335 245 308 322 313 17 147 131 164 167 168 131 140 164 159 215 141 145 188 187 190 264 154 159 177 230
7 7 7 7 6 2 1 356 352 350 347 343 337 333 326 330 331 34 76 348 338 334 65 303 337 12 202 202 334 180 181 169 129 173 166 228 286 162 150 181 173 110 356 218 155 157 232
360 360 0 1 1 1 358 357 350 346 344 339 331 324 313 228 243 303 323 337 337 20 61 290 304 130 178 194 121 169 182 172 145 151 96 249 306 127 166 198 134 77 69 4 82 89 107
353 353 354 354 355 356 357 354 349 345 341 336 327 320 289 237 231 258 317 331 9 43 45 347 351 153 76 10 4 92 148 151 204 163 73 234 215 172 213 164 145 148 95 14 28 107 330
347 347 348 348 350 351 352 352 349 345 339 337 331 320 258 226 196 228 313 331 38 98 335 316 246 20 69 345 351 24 135 146 160 92 305 316 227 208 166 76 40 94 86 214 338 0 236
343 342 344 346 347 348 349 351 349 345 340 340 340 329 266 213 209 254 327 48 74 293 248 331 102 70 74 336 12 343 87 209 210 124 293 239 178 163 187 168 177 178 140 170 142 313 307
342 342 343 346 346 348 348 350 349 347 342 343 350 353 320 196 200 263 343 56 207 199 257 255 37 79 344 322 232 29 62 236 222 172 173 230 279 244 189 153 133 199 131 199 102 144 4
344 344 344 345 346 349 349 350 349 350 345 347 17 24 73 173 185 244 68 230 236 219 251 137 177 157 201 342 327 29 341 225 311 197 174 258 305 308 54 101 51 144 138 93 8 6 278
345 344 342 342 345 348 351 350 348 353 350 353 38 102 100 147 163 313 134 240 275 274 231 156 183 149 96 262 63 304 178 275 228 318 151 175 122 297 41 252 155 126 191 52 108 167 214
345 340 339 341 345 347 351 351 349 351 359 358 52 78 162 163 25 39 165 229 312 295 155 256 134 144 153 180 129 300 259 237 329 254 89 151 140 99 171 288 243 163 158 158 128 213 231
343 350 351 343 344 344 349 352 350 350 357 8 6 84 149 178 96 323 301 284 250 297 10 162 14 39 132 143 77 228 250 278 339 46 84 183 48 71 13 343 353 66 13 119 115 86 176
337 339 341 342 342 343 346 352 350 347 347 351 357 66 128 199 214 154 307 282 319 255 60 62 46 80 89 56 43 315 318 309 333 46 49 95 46 136 159 213 213 1 2 65 25 127 161
333 336 339 338 339 341 344 351 349 343 343 350 4 20 127 233 308 195 187 276 275 304 54 40 22 16 115 98 32 347 44 328 344 12 29 91 38 69 117 135 107 63 12 37 4 336 123
327 332 335 334 334 338 339 346 350 342 341 357 23 13 341 287 286 268 171 224 211 152 63 28 124 125 116 118 165 184 282 148 301 340 91 334 142 303 40 102 43 21 34 82 40 66 83
321 326 330 329 332 337 337 340 345 341 342 340 353 332 321 305 330 89 218 278 228 139 59 148 146 102 87 180 201 299 302 301 244 313 0 60 102 58 336 73 70 349 359 337 40 49 32
315 322 324 326 330 334 337 336 338 334 324 334 334 309 298 276 247 229 268 302 238 186 145 150 154 116 234 329 116 99 82 74 66 19 85 125 135 115 153 77 169 235 338 271 104 90 60
310 318 324 327 329 330 333 331 330 327 304 287 288 303 285 265 255 304 315 258 120 124 85 128 173 131 272 35 58 55 348 13 24 33 22 35 121 79 117 80 277 3 283 355 39 293 117
304 313 320 326 329 327 329 326 329 323 296 284 269 251 244 286 247 301 302 338 134 127 29 116 109 69 44 72 65 99 174 251 326 350 52 47 56 102 91 114 190 223 172 12 142 314 200
298 306 313 323 327 325 326 328 332 324 296 273 246 225 208 258 272 330 244 228 165 131 133 157 181 89 46 57 71 118 187 217 89 67 356 12 1 92 85 126 288 267 337 76 100 242 166
293 303 309 316 320 320 320 320 318 320 303 271 231 222 222 261 276 268 325 281 173 179 145 159 81 14 56 64 114 208 150 202 99 185 146 141 126 192 71 86 274 359 60 158 217 211 168
290 301 308 311 315 314 315 315 312 302 296 269 229 228 230 246 261 281 289 267 201 200 147 158 170 159 159 96 163 119 144 63 146 221 23 340 176 185 170 216 274 334 273 228 154 156 164
Wind_Speed_850mb
35 33 32 31 29 28 27 26 25 25 24 22 22 24 23 21 22 23 24 23 21 16 12 10 8 7 7 6 2 3 4 23 35 28 31 27 19 7 5 5 6 6 16 13 15 9 2
34 36 35 31 29 28 27 28 27 26 24 21 21 23 22 20 21 22 23 24 24 21 14 10 8 5 5 4 3 7 13 15 32 25 28 25 11 3 6 2 6 12 11 14 8 8 3
37 36 36 32 31 30 29 29 29 28 25 22 19 20 21 19 20 21 21 22 23 22 17 11 8 8 9 5 10 10 14 9 15 22 17 25 13 13 7 5 3 13 8 9 8 11 7
41 38 37 36 35 33 31 29 29 29 27 24 20 20 20 19 17 18 21 26 26 18 17 13 9 14 3 10 13 14 9 4 8 16 15 11 22 8 3 15 8 7 6 4 4 10 6
47 45 42 40 39 36 34 32 30 30 28 25 23 21 20 18 14 16 23 29 23 15 13 19 11 14 6 2 14 11 9 2 4 17 21 15 13 3 3 8 7 11 6 10 11 12 16
53 51 47 44 40 39 37 34 33 31 28 25 23 20 18 18 12 14 25 22 20 8 17 12 11 7 7 12 5 8 13 10 10 21 13 9 7 6 7 8 6 8 8 5 10 11 13
56 56 53 49 44 42 39 36 35 32 29 26 25 21 19 18 11 14 21 16 20 7 29 11 20 13 13 10 8 8 17 17 8 5 7 5 9 11 10 11 8 11 10 14 14 7 6
56 56 54 52 49 44 41 38 36 33 30 27 25 23 20 18 10 11 16 12 17 18 17 8 10 15 8 1 6 8 20 10 8 4 4 10 10 10 10 10 9 11 11 7 7 16 10
52 54 54 54 52 49 44 40 37 34 32 29 28 25 20 16 8 5 9 19 30 31 3 10 7 7 4 7 3 14 28 12 6 6 6 11 6 19 11 7 7 2 7 8 9 18 11
49 51 53 54 54 50 48 43 39 36 33 32 30 27 19 12 2 4 4 23 35 12 9 10 5 3 4 3 3 15 28 11 3 14 11 6 4 10 9 6 10 5 16 18 23 29 6
47 49 52 54 56 55 50 46 40 38 34 32 32 28 15 5 5 2 8 25 20 3 9 4 4 2 5 4 1 9 26 14 7 7 10 10 5 3 6 12 7 4 22 6 8 6 4
47 49 50 53 55 56 53 48 42 39 36 33 36 24 10 10 14 6 11 25 1 10 4 10 2 2 4 9 4 4 8 9 3 7 2 14 7 11 12 11 14 29 17 7 8 5 2
46 48 50 53 55 56 55 50 44 39 37 35 30 15 7 12 9 5 15 13 9 9 6 5 1 8 9 10 11 7 8 5 6 5 4 9 9 6 12 17 11 11 12 1 7 7 7
47 47 49 52 54 55 54 51 45 40 37 36 19 9 3 9 14 9 17 8 8 2 6 5 2 6 6 5 5 12 6 4 5 6 1 5 2 16 11 17 21 14 16 8 7 6 6
46 45 47 51 54 55 53 52 45 40 35 27 13 7 4 8 13 7 7 8 7 6 6 1 3 7 5 3 3 2 3 5 10 15 12 3 9 5 10 10 19 10 8 6 12 2 3
44 41 45 49 52 55 53 52 46 38 34 21 9 5 2 8 10 5 8 7 7 9 4 2 6 4 6 6 4 3 2 3 7 15 8 7 5 6 7 18 13 16 15 7 8 5 8
42 39 43 46 50 53 53 52 47 37 31 17 7 7 7 15 7 2 4 9 10 20 17 9 9 6 4 1 3 7 3 7 5 5 15 7 6 10 7 1 15 7 2 11 10 9 7
46 42 43 45 47 51 51 50 47 40 30 14 5 6 6 10 6 4 0 6 12 9 7 5 8 7 9 10 3 4 4 9 17 7 2 2 8 5 3 12 3 8 12 12 10 11 4
44 45 45 45 45 49 48 46 42 39 34 28 10 5 13 15 3 5 10 9 10 6 4 1 4 3 4 7 3 3 5 11 15 5 3 5 5 5 9 13 8 11 4 8 7 6 11
45 47 45 44 44 45 46 43 38 33 30 26 5 4 6 11 6 7 5 9 8 3 3 9 7 7 8 7 5 2 7 6 15 14 18 10 6 9 12 12 2 9 11 6 3 8 11
41 43 43 43 43 43 44 41 36 29 25 16 6 2 3 3 2 5 4 6 4 4 6 12 11 8 7 5 5 7 6 13 10 17 13 11 8 5 8 4 5 5 9 17 2 4 7
38 40 42 42 42 42 42 40 33 25 22 8 6 7 6 5 7 3 6 8 10 4 1 3 12 2 5 8 7 2 4 2 4 12 7 5 5 6 11 15 17 10 18 10 8 6 12
37 38 40 41 41 40 40 39 33 22 17 6 4 4 5 5 4 3 6 8 7 14 7 8 16 7 3 8 7 9 9 12 4 3 3 6 8 2 5 5 13 10 15 11 3 6 4
37 37 37 37 38 39 37 37 34 24 16 8 6 5 2 6 2 5 4 9 10 3 13 10 5 7 4 7 11 13 24 25 26 13 4 9 9 2 7 2 4 6 5 13 13 7 10
36 34 34 34 36 38 37 35 33 25 17 13 7 4 3 5 7 9 13 5 19 16 5 11 4 5 3 4 8 10 10 8 10 10 14 6 8 7 8 2 2 5 5 1 5 5 7
35 32 31 32 34 36 36 34 30 25 17 16 11 10 7 4 10 5 7 3 5 7 5 6 9 3 3 10 8 5 3 3 5 6 9 12 13 8 5 7 8 10 6 3 7 6 4
34 31 31 32 34 33 32 30 28 24 18 15 11 10 8 9 9 6 5 5 10 7 6 2 3 3 8 6 7 4 2 4 3 4 6 8 8 6 4 3 10 7 8 5 8 11 9
32 32 32 33 33 32 32 31 28 23 22 15 13 16 19 11 23 8 7 7 7 10 9 12 7 6 8 8 5 4 4 4 6 2 6 5 6 1 4 5 8 6 3 4 8 4 11
30 31 32 33 33 32 32 32 30 24 20 17 16 19 22 27 17 19 14 10 10 12 19 16 6 10 11 9 2 6 2 3 5 3 4 1 10 8 12 10 5 6 2 2 4 6 14
Wind_Direction_850mb
34 34 34 33 31 28 25 21 15 12 11 11 10 13 17 21 20 19 21 20 12 355 339 325 318 322 304 262 228 48 15 193 186 179 181 172 171 149 103 88 88 74 158 169 131 151 346
32 31 30 31 30 27 24 20 17 14 12 10 9 10 11 14 17 18 17 14 13 9 356 336 323 305 272 264 175 102 81 148 189 187 180 183 195 247 25 41 185 161 178 169 191 168 130
29 28 27 27 25 23 20 17 15 12 10 9 8 8 7 7 10 10 10 5 2 6 6 359 351 323 271 228 135 133 100 121 192 195 194 191 163 59 16 88 34 89 102 108 102 161 69
29 27 26 25 22 19 16 13 11 10 9 6 4 3 3 3 360 359 353 350 345 345 6 9 9 348 274 165 166 167 153 117 206 199 194 162 206 282 25 128 83 84 110 168 90 136 59
29 26 23 21 18 13 10 10 8 7 7 4 1 359 356 354 348 346 341 345 338 337 356 348 343 349 88 70 245 248 262 348 111 153 133 139 131 165 93 91 36 12 99 84 82 23 10
28 26 22 18 14 11 8 6 4 3 3 2 359 355 350 348 335 336 343 347 357 356 346 347 2 10 84 335 21 270 211 173 83 130 139 133 114 70 43 86 200 187 121 80 95 16 2
23 22 20 16 13 8 6 3 1 359 358 358 355 350 344 342 329 339 11 6 5 351 330 290 298 277 306 333 314 186 185 169 178 163 121 134 90 210 179 197 154 137 121 112 110 23 53
19 18 16 13 11 6 3 359 358 356 353 353 349 344 338 336 323 359 32 50 32 334 308 340 286 278 302 11 99 133 170 146 142 129 137 40 208 154 166 158 152 172 162 155 104 150 156
13 13 13 11 7 5 1 357 354 353 349 346 344 339 332 333 337 65 45 19 345 335 245 308 322 313 17 147 131 164 167 168 131 140 164 159 215 141 145 188 187 190 264 154 159 177 230
7 7 7 7 6 2 1 356 352 350 347 343 337 333 326 330 331 34 76 348 338 334 65 303 337 12 202 202 334 180 181 169 129 173 166 228 286 162 150 181 173 110 356 218 155 157 232
360 360 0 1 1 1 358 357 350 346 344 339 331 324 313 228 243 303 323 337 337 20 61 290 304 130 178 194 121 169 182 172 145 151 96 249 306 127 166 198 134 77 69 4 82 89 107
353 353 354 354 355 356 357 354 349 345 341 336 327 320 289 237 231 258 317 331 9 43 45 347 351 153 76 10 4 92 148 151 204 163 73 234 215 172 213 164 145 148 95 14 28 107 330
347 347 348 348 350 351 352 352 349 345 339 337 331 320 258 226 196 228 313 331 38 98 335 316 246 20 69 345 351 24 135 146 160 92 305 316 227 208 166 76 40 94 86 214 338 0 236
343 342 344 346 347 348 349 351 349 345 340 340 340 329 266 213 209 254 327 48 74 293 248 331 102 70 74 336 12 343 87 209 210 124 293 239 178 163 187 168 177 178 140 170 142 313 307
342 342 343 346 346 348 348 350 349 347 342 343 350 353 320 196 200 263 343 56 207 199 257 255 37 79 344 322 232 29 62 236 222 172 173 230 279 244 189 153 133 199 131 199 102 144 4
344 344 344 345 346 349 349 350 349 350 345 347 17 24 73 173 185 244 68 230 236 219 251 137 177 157 201 342 327 29 341 225 311 197 174 258 305 308 54 101 51 144 138 93 8 6 278
345 344 342 342 345 348 351 350 348 353 350 353 38 102 100 147 163 313 134 240 275 274 231 156 183 149 96 262 63 304 178 275 228 318 151 175 122 297 41 252 155 126 191 52 108 167 214
345 340 339 341 345 347 351 351 349 351 359 358 52 78 162 163 25 39 165 229 312 295 155 256 134 144 153 180 129 300 259 237 329 254 89 151 140 99 171 288 243 163 158 158 128 213 231
343 350 351 343 344 344 349 352 350 350 357 8 6 84 149 178 96 323 301 284 250 297 10 162 14 39 132 143 77 228 250 278 339 46 84 183 48 71 13 343 353 66 13 119 115 86 176
337 339 341 342 342 343 346 352 350 347 347 351 357 66 128 199 214 154 307 282 319 255 60 62 46 80 89 56 43 315 318 309 333 46 49 95 46 136 159 213 213 1 2 65 25 127 161
333 336 339 338 339 341 344 351 349 343 343 350 4 20 127 233 308 195 187 276 275 304 54 40 22 16 115 98 32 347 44 328 344 12 29 91 38 69 117 135 107 63 12 37 4 336 123
327 332 335 334 334 338 339 346 350 342 341 357 23 13 341 287 286 268 171 224 211 152 63 28 124 125 116 118 165 184 282 148 301 340 91 334 142 303 40 102 43 21 34 82 40 66 83
321 326 330 329 332 337 337 340 345 341 342 340 353 332 321 305 330 89 218 278 228 139 59 148 146 102 87 180 201 299 302 301 244 313 0 60 102 58 336 73 70 349 359 337 40 49 32
315 322 324 326 330 334 337 336 338 334 324 334 334 309 298 276 247 229 268 302 238 186 145 150 154 116 234 329 116 99 82 74 66 19 85 125 135 115 153 77 169 235 338 271 104 90 60
310 318 324 327 329 330 333 331 330 327 304 287 288 303 285 265 255 304 315 258 120 124 85 128 173 131 272 35 58 55 348 13 24 33 22 35 121 79 117 80 277 3 283 355 39 293 117
304 313 320 326 329 327 329 326 329 323 296 284 269 251 244 286 247 301 302 338 134 127 29 116 109 69 44 72 65 99 174 251 326 350 52 47 56 102 91 114 190 223 172 12 142 314 200
298 306 313 323 327 325 326 328 332 324 296 273 246 225 208 258 272 330 244 228 165 131 133 157 181 89 46 57 71 118 187 217 89 67 356 12 1 92 85 126 288 267 337 76 100 242 166
293 303 309 316 320 320 320 320 318 320 303 271 231 222 222 261 276 268 325 281 173 179 145 159 81 14 56 64 114 208 150 202 99 185 146 141 126 192 71 86 274 359 60 158 217 211 168
290 301 308 311 315 314 315 315 312 302 296 269 229 228 230 246 261 281 289 267 201 200 147 158 170 159 159 96 163 119 144 63 146 221 23 340 176 185 170 216 274 334 273 228 154 156 164